Hourly Data Report for October 02, 2014

All times are specified in Local Standard Time (LST). Add 1 hour to adjust for Daylight Saving Time where and when it is observed.

KITCHENER/WATERLOO
ONTARIO

43°27'39.000" N
80°22'43.000" W
321.60 m
6144239
71368
YKF

Download Data

Hourly Data (October 2014)
Hourly Data Report for October 2, 2014
Temp Definition
°C
Dew Point Temp Definition
°C
Rel Hum Definition
%
Wind Dir Definition
10's deg

Wind Spd Definition
km/h
Visibility Definition
km
Stn Press Definition
kPa
Hmdx Definition


Wind Chill Definition


Weather Definition


TIME
00:00 Legend Double Dagger 14.5 13.4 93 11 13 4.8 98.05     Fog
01:00 Legend Double Dagger 14.5 13.4 93 9 11 4.8 98.09     Fog
02:00 Legend Double Dagger 14.3 13.5 95 9 11 2.4 98.04     Fog
03:00 Legend Double Dagger 14.3 13.5 95 9 11 2.8 98.01     Fog
04:00 Legend Double Dagger 14.4 13.5 94 11 5 4.0 98.04     Fog
05:00 Legend Double Dagger 14.4 13.6 95 8 11 3.6 98.02     Fog
06:00 Legend Double Dagger 14.4 13.5 94 11 9 4.0 98.02     Fog
07:00 Legend Double Dagger 14.4 13.5 94 11 11 4.8 98.08     Fog
08:00 Legend Double Dagger 14.6 13.5 93 11 13 3.6 98.09     Fog
09:00 Legend Double Dagger 15.1 13.8 92 14 13 4.8 98.10     Fog
10:00 Legend Double Dagger 15.9 14.3 90 14 15 4.8 98.07     Fog
11:00 Legend Double Dagger 16.3 14.2 87 16 15 6.4 98.02     Fog
12:00 Legend Double Dagger 17.8 14.6 81 15 13 8.1 98.03     Haze
13:00 Legend Double Dagger 19.2 14.4 73 13 5 14.5 97.98     LegendNANA
14:00 Legend Double Dagger 20.4 15.3 72 12 18 16.1 97.90 25   LegendNANA
15:00 Legend Double Dagger 19.8 14.7 72 13 18 16.1 97.81     LegendNANA
16:00 Legend Double Dagger 19.7 13.7 68 13 17 16.1 97.79     LegendNANA
17:00 Legend Double Dagger 17.7 14.8 83 13 17 12.9 97.80     LegendNANA
18:00 Legend Double Dagger 15.8 14.3 91 10 15 6.4 97.80     Fog
19:00 Legend Double Dagger 15.1 14.2 94 11 17 3.2 97.81     Fog
20:00 Legend Double Dagger 14.7 13.6 93 11 13 3.6 97.82     Fog
21:00 Legend Double Dagger 14.3 13.5 95 10 13 2.8 97.71     Fog
22:00 Legend Double Dagger 14.4 13.6 95 10 13 3.2 97.67     Fog
23:00 Legend Double Dagger 14.6 13.8 95 12 9 4.0 97.58     Fog

Notes on Data Quality.

Legend

  • E = Estimated
  • M = Missing
  • NA = Not Available
  • ‡ = Partner data that is not subject to review by the National Climate Archives
Date modified: